Погода в Айхале

Россия / Республика Саха (Якутия)     65°56′31″N   111°30′07″E
темп.,
°C
ветер,
м/с
пор.,
м/с
влажн.,
%
обл.,
%
осадки,
мм/ч
давл.,
гПа
погр.,
м
27 февраля, сб
сб2700:00−31вюв2299100 0.1 102940
03:00−31вюв2299100 0.1 102749
06:00−32вюв2299100 0.1 102725
09:00−33вюв2299100 0.1 102727
12:00−31юв2495100 0.1 1026254
15:00−31ююв2392100 0.1 1025300
18:00−34ю12100100 0.0 102619
21:00−38юз2210064 0.0 102619
28 февраля, вс
вс2800:00−37юз229994 0.0 102619
03:00−38зюз229797 0.0 102619
06:00−39юз229593 0.0 102619
09:00−39зюз229750 0.0 102719
12:00−35юз22920 0.0 102796
15:00−33зюз23870 0.0 1027243
18:00−37зюз22960 0.0 102919
21:00−40зюз22970 0.0 103118
1 марта, пн
пн100:00−41зюз22990 0.0 103118
03:00−42зюз11991 0.0 103118
06:00−42зюз129913 0.0 103218
09:00−42зюз129919 0.0 103218
12:00−36з118932 0.0 103171
15:00−34з228760 0.0 1030198
18:00−39з119957 0.0 103019
21:00−41з1110057 0.0 103018
2 марта, вт
вт200:00−42зсз1110051 0.0 103018
03:00−42сз1110048 0.0 103018
06:00−42ссз111000 0.0 103018
09:00−42ссз111009 0.0 103018
12:00−36с11891 0.0 102975
15:00−34с21871 0.0 1029185
18:00−38ссз12986 0.0 103019
21:00−40ссз1210013 0.0 103118
3 марта, ср
ср300:00−41ссз1210013 0.0 103218
03:00−41ссз2210029 0.0 103218
06:00−41ссз2210051 0.0 103218
09:00−40ссз2210051 0.0 103218
12:00−35ссз119125 0.0 103168
15:00−32сз228713 0.0 1030171
18:00−36сз11950 0.0 103019
21:00−38сз12940 0.0 103119